Flag Weather past 2 weeks in Luanda, Angola

Now
79 °F

Passing clouds.


Feels Like: 82 °F
Forecast: 78 / 85 °F
Wind: 7 mph from Southwest

Location: Luanda Airport

Current Time: Nov 27, 2014 at 9:54:05 PM

Latest Report: Nov 27, 2014 at 9:00 PM


Visibility: N/A

Pressure: 29.89 "Hg

Humidity: 79%

Dew point: 72 °F

Location of LuandaLocation

Historic Weather in Luanda — Graph

°F

Luanda temperature yesterday

Maximum temperature yesterday: 86 °F (at 12:00 PM)
Minimum temperature yesterday: 77 °F (at 2:00 AM)
Average temperature yesterday: 80 °F

Past Weeks' High & Low Weather Summary

 TemperatureHumidityPressure
High88 °F (Nov 14, 12:00 PM)94% (Nov 19, 1:00 AM)29.98 "Hg (Nov 19, 1:00 AM)
Low63 °F (Nov 19, 1:00 PM)55% (Nov 14, 12:00 PM)29.71 "Hg (Nov 17, 5:00 PM)
Average80 °F76%29.87 "Hg
* Reported Nov 12 9:00 PM — Nov 27 9:00 PM, Luanda, Weather by CustomWeather, © 2014

Note: Actual official high and low records may vary slightly from our data, if they occured in-between our weather recording intervals... More about our weather records

Advertising

Luanda weather history for previous 24 hours

 ConditionsComfort  
Time TempWeatherWind HumidityBarometerVisibility
9:00 PM
Nov 27
79 °FPassing clouds.7 mph79%29.89 "HgN/A
8:00 PM79 °FPassing clouds.9 mph79%29.86 "HgN/A
7:00 PM79 °FPassing clouds.9 mph79%29.83 "HgN/A
5:00 PM82 °FScattered clouds.10 mph70%29.80 "HgN/A
3:00 PM84 °FPassing clouds.8 mph66%29.83 "HgN/A
2:00 PM84 °FScattered clouds.10 mph66%29.83 "HgN/A
1:00 PM82 °FPartly sunny.9 mph70%29.86 "HgN/A
11:00 AM86 °FPartly sunny.7 mph62%29.89 "HgN/A
10:00 AM86 °FBroken clouds.6 mph59%29.92 "HgN/A
9:00 AM82 °FBroken clouds.7 mph70%29.92 "HgN/A
8:00 AM79 °FPartly sunny.6 mph79%29.89 "HgN/A
7:00 AM77 °FPartly sunny.7 mph89%29.86 "HgN/A
6:00 AM77 °FBroken clouds.3 mph83%29.86 "HgN/A
11:00 PM
Nov 26
79 °FClear.9 mph79%29.86 "Hg10 mi
10:00 PM79 °FClear.9 mph79%29.89 "Hg10 mi
9:00 PM79 °FPassing clouds.7 mph79%29.89 "HgN/A
Weather by CustomWeather, © 2014

See weather overviewHow to use our weather pages